| time (UTC) | temp F | wind direction | speed knots | gust knots | rain 1hr in | rain 24hr in | rain mn in | humidity % | barometer mb |
| 20260506025602 | 54 | 0 | 9.6 | 13.9 | 0.00 | 0.00 | 0.00 | 70 | 1009.7 |
| 20260506025102 | 55 | 0 | 9.6 | 13.9 | 0.00 | 0.00 | 0.00 | 69 | 1009.7 |
| 20260506024102 | 55 | 0 | 8.7 | 13.0 | 0.00 | 0.00 | 0.00 | 69 | 1009.7 |
| 20260506023604 | 55 | 0 | 7.8 | 11.3 | 0.00 | 0.00 | 0.00 | 69 | 1009.7 |
| 20260506023102 | 55 | 0 | 7.8 | 11.3 | 0.00 | 0.00 | 0.00 | 69 | 1009.7 |
| 20260506022604 | 55 | 0 | 7.8 | 12.2 | 0.00 | 0.00 | 0.00 | 68 | 1009.6 |
| 20260506022058 | 55 | 0 | 7.8 | 12.2 | 0.00 | 0.00 | 0.00 | 68 | 1009.7 |
| 20260506021058 | 56 | 0 | 7.8 | 12.2 | 0.00 | 0.00 | 0.00 | 68 | 1009.5 |
| 20260506020558 | 56 | 0 | 8.7 | 13.9 | 0.00 | 0.00 | 0.00 | 68 | 1009.5 |
| 20260506020109 | 56 | 0 | 9.6 | 13.9 | 0.00 | 0.00 | 0.00 | 67 | 1009.5 |
| 20260506014600 | 56 | 0 | 9.6 | 15.6 | 0.00 | 0.00 | 0.00 | 67 | 1009.3 |
| 20260506014059 | 56 | 0 | 9.6 | 14.8 | 0.00 | 0.00 | 0.00 | 67 | 1009.3 |
| 20260506013558 | 56 | 0 | 9.6 | 14.8 | 0.00 | 0.00 | 0.00 | 67 | 1009.3 |
| 20260506012100 | 57 | 0 | 9.6 | 15.6 | 0.00 | 0.00 | 0.00 | 67 | 1008.7 |
| 20260506011601 | 57 | 0 | 9.6 | 13.9 | 0.00 | 0.00 | 0.00 | 67 | 1008.6 |
| 20260506011059 | 57 | 0 | 9.6 | 14.8 | 0.00 | 0.00 | 0.00 | 66 | 1008.6 |
| 20260506010559 | 57 | 0 | 8.7 | 14.8 | 0.00 | 0.00 | 0.00 | 66 | 1008.4 |
| 20260506005558 | 58 | 0 | 8.7 | 15.6 | 0.00 | 0.00 | 0.00 | 66 | 1008.4 |
| 20260506004558 | 58 | 0 | 9.6 | 16.5 | 0.00 | 0.00 | 0.00 | 65 | 1008.3 |
| 20260506004053 | 58 | 0 | 9.6 | 16.5 | 0.00 | 0.00 | 0.00 | 65 | 1007.9 |
| 20260506003547 | 58 | 0 | 9.6 | 16.5 | 0.00 | 0.00 | 0.00 | 65 | 1008.1 |
| 20260506003040 | 58 | 71 | 9.6 | 15.6 | 0.00 | 0.00 | 0.00 | 64 | 1007.9 |
| 20260506002535 | 59 | 0 | 10.4 | 16.5 | 0.00 | 0.00 | 0.00 | 64 | 1007.8 |
| 20260506001523 | 59 | 0 | 10.4 | 16.5 | 0.00 | 0.00 | 0.00 | 64 | 1008.0 |
| 20260506000514 | 59 | 0 | 8.7 | 15.6 | 0.00 | 0.00 | 0.00 | 64 | 1008.0 |
| 20260506000014 | 60 | 0 | 9.6 | 15.6 | 0.00 | 0.00 | 0.00 | 63 | 1007.9 |
| 20260505235519 | 60 | 0 | 10.4 | 18.2 | 0.00 | 0.00 | 0.00 | 63 | 1007.7 |
| 20260505235015 | 60 | 0 | 11.3 | 18.2 | 0.00 | 0.00 | 0.00 | 63 | 1007.4 |
| 20260505234514 | 60 | 0 | 10.4 | 18.2 | 0.00 | 0.00 | 0.00 | 63 | 1007.7 |
| 20260505234014 | 61 | 0 | 10.4 | 16.5 | 0.00 | 0.00 | 0.00 | 63 | 1007.7 |
| 20260505233515 | 61 | 0 | 10.4 | 16.5 | 0.00 | 0.00 | 0.00 | 62 | 1007.4 |
| 20260505233014 | 61 | 0 | 10.4 | 15.6 | 0.00 | 0.00 | 0.00 | 62 | 1007.5 |
| 20260505232014 | 62 | 0 | 9.6 | 14.8 | 0.00 | 0.00 | 0.00 | 62 | 1007.4 |
| 20260505231513 | 62 | 0 | 9.6 | 15.6 | 0.00 | 0.00 | 0.00 | 62 | 1007.1 |
| 20260505231012 | 62 | 0 | 10.4 | 15.6 | 0.00 | 0.00 | 0.00 | 61 | 1007.2 |
| 20260505230513 | 62 | 0 | 9.6 | 15.6 | 0.00 | 0.00 | 0.00 | 61 | 1007.1 |
| 20260505225513 | 63 | 0 | 9.6 | 15.6 | 0.00 | 0.00 | 0.00 | 60 | 1007.5 |
| 20260505225011 | 63 | 0 | 9.6 | 17.4 | 0.00 | 0.00 | 0.00 | 59 | 1007.5 |
| 20260505224514 | 64 | 67 | 10.4 | 17.4 | 0.00 | 0.00 | 0.00 | 58 | 1007.1 |
| 20260505224006 | 64 | 327 | 9.6 | 15.6 | 0.00 | 0.00 | 0.00 | 58 | 1007.2 |
| 20260505223500 | 65 | 0 | 9.6 | 15.6 | 0.00 | 0.00 | 0.00 | 57 | 1007.5 |
| 20260505222954 | 65 | 0 | 8.7 | 14.8 | 0.00 | 0.00 | 0.00 | 56 | 1007.4 |
| 20260505222449 | 66 | 0 | 7.0 | 14.8 | 0.00 | 0.00 | 0.00 | 55 | 1007.3 |
| 20260505220944 | 67 | 0 | 6.1 | 14.8 | 0.00 | 0.00 | 0.00 | 53 | 1007.5 |
| 20260505220424 | 68 | 0 | 6.1 | 12.2 | 0.00 | 0.00 | 0.00 | 52 | 1007.3 |
| 20260505215919 | 68 | 14 | 6.1 | 12.2 | 0.00 | 0.00 | 0.00 | 52 | 1007.3 |
| 20260505215412 | 68 | 0 | 7.0 | 13.9 | 0.00 | 0.00 | 0.00 | 52 | 1007.3 |
| 20260505214907 | 69 | 0 | 7.8 | 15.6 | 0.00 | 0.00 | 0.00 | 51 | 1007.4 |
| 20260505214401 | 69 | 0 | 7.8 | 15.6 | 0.00 | 0.00 | 0.00 | 51 | 1007.5 |
| 20260505213854 | 69 | 0 | 7.8 | 15.6 | 0.00 | 0.00 | 0.00 | 49 | 1007.4 |
| 20260505212842 | 70 | 0 | 7.0 | 17.4 | 0.00 | 0.00 | 0.00 | 48 | 1007.3 |
| 20260505212337 | 71 | 26 | 6.1 | 13.0 | 0.00 | 0.00 | 0.00 | 47 | 1007.3 |
| 20260505211830 | 71 | 0 | 6.1 | 12.2 | 0.00 | 0.00 | 0.00 | 47 | 1007.4 |
| 20260505211337 | 71 | 22 | 7.0 | 12.2 | 0.00 | 0.00 | 0.00 | 47 | 1007.6 |
| 20260505210819 | 71 | 0 | 6.1 | 12.2 | 0.00 | 0.00 | 0.00 | 46 | 1007.5 |
| 20260505205806 | 72 | 72 | 6.1 | 15.6 | 0.00 | 0.00 | 0.00 | 45 | 1007.3 |
| 20260505205300 | 72 | 0 | 5.2 | 15.6 | 0.00 | 0.00 | 0.00 | 44 | 1007.4 |
| 20260505204754 | 72 | 0 | 5.2 | 11.3 | 0.00 | 0.00 | 0.00 | 45 | 1007.4 |
| 20260505204248 | 72 | 0 | 6.1 | 13.0 | 0.00 | 0.00 | 0.00 | 45 | 1007.4 |
| 20260505203743 | 72 | 0 | 5.2 | 13.0 | 0.00 | 0.00 | 0.00 | 45 | 1007.5 |
| 20260505203236 | 72 | 35 | 5.2 | 13.9 | 0.00 | 0.00 | 0.00 | 45 | 1007.2 |
| 20260505202224 | 72 | 17 | 5.2 | 11.3 | 0.00 | 0.00 | 0.00 | 45 | 1007.2 |
| 20260505201213 | 72 | 0 | 7.0 | 17.4 | 0.00 | 0.00 | 0.00 | 45 | 1007.2 |
| 20260505200707 | 72 | 0 | 6.1 | 14.8 | 0.00 | 0.00 | 0.00 | 45 | 1006.9 |
| 20260505200200 | 72 | 0 | 5.2 | 11.3 | 0.00 | 0.00 | 0.00 | 45 | 1006.9 |
| 20260505195149 | 72 | 0 | 5.2 | 12.2 | 0.00 | 0.00 | 0.00 | 45 | 1006.9 |
| 20260505194643 | 72 | 46 | 5.2 | 11.3 | 0.00 | 0.00 | 0.00 | 46 | 1007.0 |
| 20260505194137 | 72 | 0 | 5.2 | 11.3 | 0.00 | 0.00 | 0.00 | 45 | 1007.0 |
| 20260505193631 | 72 | 313 | 5.2 | 10.4 | 0.00 | 0.00 | 0.00 | 45 | 1007.2 |
| 20260505193125 | 72 | 0 | 5.2 | 11.3 | 0.00 | 0.00 | 0.00 | 45 | 1007.0 |
| 20260505192113 | 72 | 0 | 6.1 | 13.0 | 0.00 | 0.00 | 0.00 | 45 | 1007.0 |
| 20260505191101 | 73 | 0 | 7.0 | 17.4 | 0.00 | 0.00 | 0.00 | 45 | 1006.9 |
| 20260505190555 | 73 | 0 | 7.8 | 13.9 | 0.00 | 0.00 | 0.00 | 45 | 1006.8 |
| 20260505185544 | 73 | 0 | 7.0 | 13.9 | 0.00 | 0.00 | 0.00 | 45 | 1006.7 |
| 20260505185043 | 73 | 67 | 5.2 | 13.0 | 0.00 | 0.00 | 0.00 | 46 | 1006.9 |
| 20260505184041 | 73 | 0 | 7.0 | 16.5 | 0.00 | 0.00 | 0.00 | 47 | 1007.1 |
| 20260505183539 | 72 | 0 | 6.1 | 16.5 | 0.00 | 0.00 | 0.00 | 47 | 1007.2 |
| 20260505183038 | 72 | 0 | 5.2 | 11.3 | 0.00 | 0.00 | 0.00 | 49 | 1007.0 |
| 20260505182540 | 72 | 0 | 5.2 | 13.0 | 0.00 | 0.00 | 0.00 | 49 | 1007.0 |
| 20260505182035 | 72 | 329 | 6.1 | 14.8 | 0.00 | 0.00 | 0.00 | 49 | 1007.0 |
| 20260505181536 | 72 | 0 | 7.0 | 15.6 | 0.00 | 0.00 | 0.00 | 48 | 1006.8 |
| 20260505180535 | 72 | 0 | 6.1 | 13.0 | 0.00 | 0.00 | 0.00 | 49 | 1007.1 |
| 20260505180034 | 72 | 0 | 7.0 | 13.9 | 0.00 | 0.00 | 0.00 | 49 | 1006.9 |
| 20260505175535 | 72 | 0 | 7.0 | 13.9 | 0.00 | 0.00 | 0.00 | 49 | 1006.8 |
| 20260505175033 | 72 | 0 | 7.0 | 13.9 | 0.00 | 0.00 | 0.00 | 49 | 1007.0 |
| 20260505174535 | 72 | 0 | 6.1 | 14.8 | 0.00 | 0.00 | 0.00 | 50 | 1007.1 |
| 20260505174035 | 72 | 0 | 6.1 | 14.8 | 0.00 | 0.00 | 0.00 | 49 | 1006.7 |
| 20260505173531 | 72 | 0 | 7.0 | 14.8 | 0.00 | 0.00 | 0.00 | 50 | 1006.9 |
| 20260505173031 | 72 | 0 | 7.0 | 13.9 | 0.00 | 0.00 | 0.00 | 51 | 1006.7 |
| 20260505172530 | 72 | 342 | 7.0 | 13.9 | 0.00 | 0.00 | 0.00 | 51 | 1006.9 |
| 20260505172029 | 72 | 305 | 7.8 | 14.8 | 0.00 | 0.00 | 0.00 | 52 | 1007.1 |
| 20260505171530 | 73 | 0 | 7.8 | 14.8 | 0.00 | 0.00 | 0.00 | 52 | 1007.2 |
| 20260505171031 | 73 | 323 | 7.0 | 16.5 | 0.00 | 0.00 | 0.00 | 51 | 1006.7 |
| 20260505170531 | 73 | 0 | 7.0 | 16.5 | 0.00 | 0.00 | 0.00 | 51 | 1006.7 |
| 20260505170030 | 73 | 0 | 7.0 | 14.8 | 0.00 | 0.00 | 0.00 | 52 | 1006.6 |
| 20260505165530 | 73 | 0 | 6.1 | 14.8 | 0.00 | 0.00 | 0.00 | 52 | 1006.2 |
| 20260505165025 | 74 | 42 | 6.1 | 13.0 | 0.00 | 0.00 | 0.00 | 53 | 1006.0 |
| 20260505164527 | 74 | 0 | 7.0 | 15.6 | 0.00 | 0.00 | 0.00 | 52 | 1005.9 |
| 20260505164026 | 74 | 0 | 7.0 | 15.6 | 0.00 | 0.00 | 0.00 | 53 | 1005.8 |
| 20260505163025 | 74 | 0 | 6.1 | 12.2 | 0.00 | 0.00 | 0.00 | 55 | 1005.6 |
| 20260505162026 | 74 | 0 | 6.1 | 13.9 | 0.00 | 0.00 | 0.00 | 55 | 1005.4 |
| 20260505161527 | 75 | 0 | 6.1 | 13.9 | 0.00 | 0.00 | 0.00 | 55 | 1005.3 |
| 20260505161026 | 75 | 0 | 6.1 | 13.9 | 0.00 | 0.00 | 0.00 | 55 | 1005.1 |
| 20260505160521 | 75 | 79 | 5.2 | 13.9 | 0.00 | 0.00 | 0.00 | 55 | 1004.8 |
| 20260505153021 | 76 | 0 | 7.8 | 17.4 | 0.00 | 0.00 | 0.00 | 57 | 1004.4 |
| 20260505152019 | 76 | 0 | 7.0 | 14.8 | 0.00 | 0.00 | 0.00 | 55 | 1004.3 |
| 20260505151519 | 76 | 0 | 7.8 | 20.9 | 0.00 | 0.00 | 0.00 | 55 | 1004.3 |
| 20260505151020 | 76 | 299 | 7.8 | 20.9 | 0.00 | 0.00 | 0.00 | 54 | 1004.2 |
| 20260505150518 | 76 | 0 | 7.8 | 16.5 | 0.00 | 0.00 | 0.00 | 52 | 1004.3 |
| 20260505140507 | 76 | 311 | 7.0 | 13.0 | 0.00 | 0.00 | 0.00 | 29 | 1003.1 |
| 20260505125000 | 72 | 0 | 3.5 | 7.8 | 0.00 | 0.00 | 0.00 | 58 | 1001.2 |
| 20260505123954 | 72 | 244 | 3.5 | 7.8 | 0.00 | 0.00 | 0.00 | 59 | 1001.0 |
| 20260505123449 | 72 | 0 | 4.3 | 7.8 | 0.00 | 0.00 | 0.00 | 59 | 1001.1 |
| 20260505122941 | 72 | 0 | 4.3 | 7.8 | 0.00 | 0.00 | 0.00 | 59 | 1000.9 |
| 20260505122436 | 72 | 0 | 4.3 | 8.7 | 0.00 | 0.00 | 0.00 | 59 | 1000.8 |
| 20260505121930 | 72 | 0 | 5.2 | 8.7 | 0.00 | 0.00 | 0.00 | 58 | 1000.9 |
| 20260505115400 | 73 | 0 | 5.2 | 8.7 | 0.00 | 0.00 | 0.00 | 57 | 1000.6 |
| 20260505114854 | 73 | 0 | 5.2 | 8.7 | 0.00 | 0.00 | 0.00 | 57 | 1000.5 |
| 20260505114347 | 73 | 0 | 5.2 | 10.4 | 0.00 | 0.00 | 0.00 | 57 | 1000.5 |
| 20260505113842 | 73 | 0 | 6.1 | 11.3 | 0.00 | 0.00 | 0.00 | 57 | 1000.5 |
| 20260505113336 | 73 | 0 | 7.0 | 12.2 | 0.00 | 0.00 | 0.00 | 57 | 1000.3 |
| 20260505112830 | 74 | 0 | 7.8 | 12.2 | 0.00 | 0.00 | 0.00 | 56 | 1000.2 |
| 20260505112324 | 74 | 0 | 7.8 | 12.2 | 0.00 | 0.00 | 0.00 | 56 | 1000.0 |
| 20260505111818 | 74 | 0 | 7.8 | 12.2 | 0.00 | 0.00 | 0.00 | 56 | 1000.0 |
| 20260505111312 | 74 | 0 | 7.0 | 12.2 | 0.00 | 0.00 | 0.00 | 56 | 1000.0 |
| 20260505110806 | 74 | 0 | 6.1 | 11.3 | 0.00 | 0.00 | 0.00 | 55 | 1000.1 |
| 20260505102212 | 75 | 0 | 7.8 | 14.8 | 0.00 | 0.00 | 0.00 | 55 | 999.6 |
| 20260505101706 | 75 | 0 | 7.8 | 11.3 | 0.00 | 0.00 | 0.00 | 54 | 999.6 |
| 20260505101200 | 75 | 0 | 7.8 | 11.3 | 0.00 | 0.00 | 0.00 | 54 | 999.7 |
| 20260505100147 | 75 | 0 | 7.8 | 12.2 | 0.00 | 0.00 | 0.00 | 54 | 999.7 |
| 20260505094630 | 75 | 0 | 7.8 | 12.2 | 0.00 | 0.00 | 0.00 | 53 | 999.5 |
| 20260505094124 | 76 | 0 | 7.8 | 13.0 | 0.00 | 0.00 | 0.00 | 52 | 999.5 |
| 20260505093617 | 76 | 0 | 7.8 | 13.0 | 0.00 | 0.00 | 0.00 | 52 | 999.5 |
| 20260505093111 | 76 | 0 | 7.0 | 12.2 | 0.00 | 0.00 | 0.00 | 52 | 999.5 |
| 20260505092606 | 76 | 0 | 7.0 | 12.2 | 0.00 | 0.00 | 0.00 | 52 | 999.4 |
| 20260505092100 | 76 | 0 | 7.0 | 12.2 | 0.00 | 0.00 | 0.00 | 52 | 999.4 |
| 20260505091553 | 76 | 0 | 7.0 | 11.3 | 0.00 | 0.00 | 0.00 | 52 | 999.4 |
| 20260505091048 | 76 | 0 | 7.0 | 12.2 | 0.00 | 0.00 | 0.00 | 51 | 999.6 |
| 20260505090036 | 76 | 0 | 7.0 | 11.3 | 0.00 | 0.00 | 0.00 | 51 | 999.6 |
| 20260505085531 | 77 | 0 | 7.0 | 12.2 | 0.00 | 0.00 | 0.00 | 51 | 999.5 |
| 20260505085031 | 77 | 0 | 7.8 | 12.2 | 0.00 | 0.00 | 0.00 | 51 | 999.6 |
| 20260505084031 | 77 | 0 | 7.8 | 13.0 | 0.00 | 0.00 | 0.00 | 51 | 999.7 |
| 20260505083032 | 76 | 0 | 7.8 | 13.9 | 0.00 | 0.00 | 0.00 | 51 | 999.7 |
| 20260505082531 | 76 | 0 | 7.8 | 13.9 | 0.00 | 0.00 | 0.00 | 52 | 999.7 |
| 20260505081528 | 76 | 0 | 7.8 | 13.0 | 0.00 | 0.00 | 0.00 | 52 | 999.9 |
| 20260505081026 | 76 | 0 | 7.0 | 13.0 | 0.00 | 0.00 | 0.00 | 53 | 999.9 |
| 20260505080527 | 75 | 0 | 7.8 | 13.0 | 0.00 | 0.00 | 0.00 | 53 | 999.8 |
| 20260505075527 | 74 | 0 | 7.8 | 13.0 | 0.00 | 0.00 | 0.00 | 54 | 999.9 |
| 20260505075028 | 73 | 0 | 7.8 | 12.2 | 0.00 | 0.00 | 0.00 | 55 | 999.9 |
| 20260505074527 | 73 | 0 | 7.0 | 11.3 | 0.00 | 0.00 | 0.00 | 56 | 999.9 |
| 20260505074028 | 72 | 0 | 5.2 | 11.3 | 0.00 | 0.00 | 0.00 | 55 | 999.9 |
| 20260505073528 | 71 | 0 | 3.5 | 10.4 | 0.00 | 0.00 | 0.00 | 54 | 1000.0 |
| 20260505072516 | 71 | 0 | 1.7 | 7.0 | 0.00 | 0.00 | 0.00 | 51 | 1000.2 |
| 20260505072010 | 71 | 0 | 0.9 | 4.3 | 0.00 | 0.00 | 0.00 | 50 | 1000.2 |
| 20260505071503 | 70 | 0 | 0.9 | 3.5 | 0.00 | 0.00 | 0.00 | 49 | 1000.2 |
| 20260505071001 | 71 | 0 | 0.9 | 4.3 | 0.00 | 0.00 | 0.00 | 48 | 1000.2 |
| 20260505070001 | 71 | 0 | 0.0 | 2.6 | 0.00 | 0.00 | 0.00 | 47 | 1000.4 |
| 20260505065502 | 71 | 0 | 0.0 | 2.6 | 0.00 | 0.00 | 0.00 | 46 | 1000.3 |
| 20260505065001 | 71 | 0 | 0.0 | 1.7 | 0.00 | 0.00 | 0.00 | 46 | 1000.3 |
| 20260505064500 | 71 | 0 | 0.0 | 0.9 | 0.00 | 0.00 | 0.00 | 46 | 1000.4 |
| 20260505064001 | 72 | 0 | 0.9 | 2.6 | 0.00 | 0.00 | 0.00 | 46 | 1000.5 |
| 20260505063001 | 72 | 0 | 1.7 | 3.5 | 0.00 | 0.00 | 0.00 | 45 | 1000.7 |
| 20260505062500 | 72 | 0 | 1.7 | 3.5 | 0.00 | 0.00 | 0.00 | 46 | 1000.7 |
| 20260505062001 | 73 | 0 | 2.6 | 7.0 | 0.00 | 0.00 | 0.00 | 47 | 1000.7 |
| 20260505061500 | 73 | 0 | 1.7 | 7.0 | 0.00 | 0.00 | 0.00 | 47 | 1000.7 |
| 20260505061002 | 74 | 0 | 0.9 | 4.3 | 0.00 | 0.00 | 0.00 | 49 | 1000.8 |
| 20260505060500 | 74 | 0 | 0.9 | 3.5 | 0.00 | 0.00 | 0.00 | 50 | 1000.8 |
| 20260505060002 | 74 | 0 | 1.7 | 3.5 | 0.00 | 0.00 | 0.00 | 51 | 1000.9 |
| 20260505055500 | 74 | 0 | 1.7 | 3.5 | 0.00 | 0.00 | 0.00 | 51 | 1000.8 |
| 20260505055002 | 75 | 0 | 1.7 | 4.3 | 0.00 | 0.00 | 0.00 | 51 | 1000.8 |
| 20260505054500 | 75 | 0 | 1.7 | 4.3 | 0.00 | 0.00 | 0.00 | 51 | 1000.8 |
| 20260505054001 | 75 | 0 | 1.7 | 3.5 | 0.00 | 0.00 | 0.00 | 51 | 1000.7 |
| 20260505053500 | 76 | 0 | 1.7 | 3.5 | 0.00 | 0.00 | 0.00 | 52 | 1000.7 |
| 20260505052502 | 76 | 0 | 1.7 | 7.8 | 0.00 | 0.00 | 0.00 | 52 | 1000.8 |
| 20260505052003 | 77 | 0 | 3.5 | 7.8 | 0.00 | 0.00 | 0.00 | 52 | 1000.8 |
| 20260505051458 | 77 | 0 | 2.6 | 5.2 | 0.00 | 0.00 | 0.00 | 51 | 1001.0 |
| 20260505050958 | 77 | 0 | 1.7 | 4.3 | 0.00 | 0.00 | 0.00 | 50 | 1000.9 |
| 20260505050459 | 78 | 0 | 1.7 | 4.3 | 0.00 | 0.00 | 0.00 | 50 | 1000.9 |
| 20260505041406 | 80 | 0 | 2.6 | 7.0 | 0.00 | 0.00 | 0.00 | 50 | 1000.9 |
| 20260505040900 | 80 | 0 | 2.6 | 7.0 | 0.00 | 0.00 | 0.00 | 50 | 1000.9 |
| 20260505040355 | 80 | 0 | 2.6 | 7.8 | 0.00 | 0.00 | 0.00 | 50 | 1000.9 |
| 20260505035848 | 80 | 0 | 3.5 | 7.8 | 0.00 | 0.00 | 0.00 | 50 | 1000.9 |
| 20260505035343 | 81 | 0 | 3.5 | 7.0 | 0.00 | 0.00 | 0.00 | 50 | 1001.0 |
| 20260505034837 | 81 | 0 | 2.6 | 7.0 | 0.00 | 0.00 | 0.00 | 50 | 1001.0 |
| 20260505034330 | 81 | 0 | 2.6 | 7.0 | 0.00 | 0.00 | 0.00 | 49 | 1001.0 |
| 20260505033825 | 81 | 0 | 3.5 | 7.0 | 0.00 | 0.00 | 0.00 | 49 | 1000.9 |
| 20260505033319 | 82 | 0 | 3.5 | 7.8 | 0.00 | 0.00 | 0.00 | 48 | 1000.9 |
| 20260505032813 | 82 | 0 | 3.5 | 7.8 | 0.00 | 0.00 | 0.00 | 48 | 1000.9 |
| 20260505032306 | 82 | 0 | 3.5 | 7.8 | 0.00 | 0.00 | 0.00 | 48 | 1001.0 |
| 20260505031800 | 82 | 0 | 4.3 | 8.7 | 0.00 | 0.00 | 0.00 | 47 | 1001.0 |
| 20260505031254 | 83 | 0 | 4.3 | 8.7 | 0.00 | 0.00 | 0.00 | 47 | 1001.0 |
| 20260505030243 | 83 | 0 | 4.3 | 9.6 | 0.00 | 0.00 | 0.00 | 46 | 1000.7 |